Hourly Data Report for August 08, 2000

SHERBROOKE A
QUEBEC

45°26'00.000" N
71°41'00.000" W
241.40 m
7028124
71610
YSC

Download Data

Hourly Data (August 2000)
Hourly Data Report for August 8, 2000
TIME
LST
Temp Definition
°C
Dew Point Definition
°C
Rel Hum Definition
%
Precip. Amount Definition
mm

Wind Dir Definition
10's deg

Wind Spd Definition
km/h
Visibility Definition
km
Stn Press Definition
kPa
Hmdx Definition


Wind Chill Definition


Weather Definition


00:00 16.7 16.2 97   16 6 8.0 98.06      
01:00 17.5 16.5 94   19 9 15.0 98.02      
02:00 17.9 16.5 92   21 4 15.0 97.99      
03:00 17.4 16.5 94   19 4 15.0 98.02      
04:00 17.0 16.2 95     0 12.9 98.02      
05:00 17.7 17.0 96   20 4 5.6 98.06     Rain
06:00 18.4 17.6 95   18 7 4.8 98.06     Drizzle
07:00 19.4 18.3 93   22 4 4.8 98.09     Fog
08:00 21.8 19.1 85   23 13 11.3 98.09 29   Mostly Cloudy
09:00 23.2 17.7 71   25 20 24.1 98.09 29   Mainly Clear
10:00 22.6 15.9 66   26 24 24.1 98.09 27   Mostly Cloudy
11:00 23.6 16.3 64   23 15 24.1 98.09 28   Mostly Cloudy
12:00 23.6 15.6 61   25 24 24.1 98.06 28   Mostly Cloudy
13:00 23.0 15.8 64   24 20 24.1 98.09 27   Mostly Cloudy
14:00 22.6 16.1 67   23 22 24.1 98.09 27   Mostly Cloudy
15:00 23.2 16.0 64   27 22 24.1 98.12 28   Mostly Cloudy
16:00 22.3 16.0 68   26 13 24.1 98.16 27   Mostly Cloudy
17:00 22.0 16.2 70   24 9 15.0 98.19 27    
18:00 21.7 16.7 73   23 7 15.0 98.19 27    
19:00 20.1 16.8 81   23 7 15.0 98.22 25    
20:00 19.4 16.7 84   21 6 15.0 98.26      
21:00 19.2 16.4 84   20 7 15.0 98.29      
22:00 19.3 16.1 82   20 9 15.0 98.26      
23:00 18.4 16.0 86   20 4 15.0 98.29      

Notes on Data Quality.

Legend

  • E = Estimated
  • M = Missing
  • NA = Not Available*
  • [empty] = Indicates an unobserved value
Date modified: